LPE2428 SCEL-SAEZ

Flight info

Callsign LPE2428
Flight time 1h 19m
Altitude 35000
Route N0456F350 ALBAL7C ALBAL UM424 ASADA ASADA7U
Aircraft B763/H-SDE3FGHIM3RWXYZ/LB1

Departure

Time 2026-05-06 20:30
Airport Comodoro Arturo Merino Benítez International Airport (SCEL)

Arrival

Time 2026-05-06 21:49
Airport Ezeiza International Airport - Ministro Pistarini (SAEZ)
Time Latitude Longitude Altitude Speed Heading
2026-05-06 20:14 -33.40039 -70.78964 1568 ft 0 kts
2026-05-06 20:19 -33.40047 -70.78964 1567 ft 2 kts
2026-05-06 20:20 -33.40062 -70.78965 1567 ft 2 kts
2026-05-06 20:20 -33.40077 -70.78965 1567 ft 2 kts
2026-05-06 20:20 -33.40092 -70.78966 1567 ft 2 kts
2026-05-06 20:20 -33.40107 -70.78970 1567 ft 2 kts 31°
2026-05-06 20:21 -33.40118 -70.78981 1567 ft 2 kts 51°
2026-05-06 20:21 -33.40126 -70.78996 1567 ft 2 kts 72°
2026-05-06 20:21 -33.40129 -70.79008 1567 ft 0 kts 86°
2026-05-06 20:21 -33.40129 -70.79015 1567 ft 0 kts 88°
2026-05-06 20:23 -33.40129 -70.79010 1567 ft 2 kts 88°
2026-05-06 20:23 -33.40128 -70.78984 1567 ft 3 kts 87°
2026-05-06 20:24 -33.40126 -70.78950 1567 ft 6 kts 87°
2026-05-06 20:24 -33.40125 -70.78874 1567 ft 11 kts 90°
2026-05-06 20:24 -33.40110 -70.78775 1567 ft 9 kts 45°
2026-05-06 20:24 -33.40056 -70.78754 1567 ft 11 kts
2026-05-06 20:25 -33.39957 -70.78760 1567 ft 15 kts 357°
2026-05-06 20:25 -33.39850 -70.78765 1567 ft 15 kts 357°
2026-05-06 20:25 -33.39743 -70.78771 1567 ft 15 kts 359°
2026-05-06 20:25 -33.39619 -70.78777 1568 ft 19 kts 356°
2026-05-06 20:26 -33.39479 -70.78785 1568 ft 20 kts 358°
2026-05-06 20:26 -33.39338 -70.78793 1568 ft 20 kts 357°
2026-05-06 20:26 -33.39184 -70.78800 1568 ft 23 kts 357°
2026-05-06 20:26 -33.39016 -70.78809 1568 ft 23 kts 358°
2026-05-06 20:27 -33.38850 -70.78818 1568 ft 23 kts 358°
2026-05-06 20:27 -33.38685 -70.78827 1568 ft 23 kts 358°
2026-05-06 20:27 -33.38512 -70.78838 1568 ft 26 kts 357°
2026-05-06 20:27 -33.38328 -70.78844 1568 ft 26 kts 358°
2026-05-06 20:28 -33.38147 -70.78856 1568 ft 25 kts 358°
2026-05-06 20:28 -33.37980 -70.78865 1568 ft 23 kts 358°
2026-05-06 20:28 -33.37830 -70.78873 1568 ft 19 kts 357°
2026-05-06 20:28 -33.37680 -70.78881 1568 ft 23 kts 357°
2026-05-06 20:29 -33.37564 -70.78853 1568 ft 11 kts 55°
2026-05-06 20:29 -33.37547 -70.78759 1568 ft 13 kts 88°
2026-05-06 20:29 -33.37602 -70.78673 1568 ft 20 kts 175°
2026-05-06 20:29 -33.37861 -70.78656 1568 ft 63 kts 178°
2026-05-06 20:30 -33.38527 -70.78622 1568 ft 127 kts 178°
2026-05-06 20:30 -33.40815 -70.78554 2403 ft 180 kts 178°
2026-05-06 20:30 -33.42096 -70.78512 3033 ft 193 kts 179°
2026-05-06 20:31 -33.43559 -70.78439 3268 ft 227 kts 179°
2026-05-06 20:31 -33.45245 -70.78333 3590 ft 259 kts 178°
2026-05-06 20:31 -33.47083 -70.78204 4408 ft 271 kts 178°
2026-05-06 20:31 -33.48993 -70.78007 5280 ft 281 kts 168°
2026-05-06 20:32 -33.50744 -70.77043 6196 ft 289 kts 141°
2026-05-06 20:32 -33.51982 -70.75148 7218 ft 291 kts 112°
2026-05-06 20:32 -33.52763 -70.72900 8079 ft 299 kts 116°
2026-05-06 20:32 -33.53831 -70.70782 8972 ft 305 kts 124°
2026-05-06 20:33 -33.55085 -70.68722 9925 ft 309 kts 127°
2026-05-06 20:33 -33.56459 -70.66651 10550 ft 327 kts 130°
2026-05-06 20:33 -33.57994 -70.64469 10760 ft 361 kts 131°
2026-05-06 20:33 -33.59708 -70.62096 11054 ft 392 kts 131°
2026-05-06 20:34 -33.61587 -70.59524 11466 ft 420 kts 132°
2026-05-06 20:34 -33.63492 -70.56927 12571 ft 426 kts 132°
2026-05-06 20:34 -33.65476 -70.54228 13755 ft 432 kts 132°
2026-05-06 20:34 -33.67477 -70.51505 14704 ft 440 kts 133°
2026-05-06 20:35 -33.69499 -70.48753 15583 ft 450 kts 133°
2026-05-06 20:35 -33.71588 -70.45913 16417 ft 460 kts 133°
2026-05-06 20:35 -33.73708 -70.43023 17352 ft 467 kts 133°
2026-05-06 20:35 -33.75858 -70.40093 18259 ft 475 kts 134°
2026-05-06 20:36 -33.78079 -70.37064 19207 ft 480 kts 134°
2026-05-06 20:36 -33.80283 -70.34055 19834 ft 491 kts 133°
2026-05-06 20:36 -33.82560 -70.30946 20692 ft 498 kts 134°
2026-05-06 20:36 -33.84855 -70.27802 21445 ft 505 kts 134°
2026-05-06 20:37 -33.87203 -70.24588 22225 ft 512 kts 135°
2026-05-06 20:37 -33.89574 -70.21345 22794 ft 522 kts 134°
2026-05-06 20:37 -33.91948 -70.18087 23468 ft 530 kts 134°
2026-05-06 20:37 -33.94367 -70.14756 24364 ft 532 kts 135°
2026-05-06 20:38 -33.96843 -70.11365 24864 ft 544 kts 134°
2026-05-06 20:38 -33.99367 -70.07881 25682 ft 547 kts 136°
2026-05-06 20:38 -34.01880 -70.04429 26099 ft 560 kts 136°
2026-05-06 20:38 -34.04439 -70.00896 26618 ft 567 kts 136°
2026-05-06 20:39 -34.07043 -69.97316 27104 ft 571 kts 136°
2026-05-06 20:39 -34.09668 -69.93684 27620 ft 568 kts 136°
2026-05-06 20:39 -34.12269 -69.90086 28145 ft 571 kts 136°
2026-05-06 20:39 -34.14786 -69.86378 28634 ft 571 kts 134°
2026-05-06 20:40 -34.17110 -69.82408 29138 ft 581 kts 124°
2026-05-06 20:40 -34.18973 -69.78123 29648 ft 589 kts 115°
2026-05-06 20:40 -34.20397 -69.73467 30171 ft 594 kts 108°
2026-05-06 20:40 -34.21315 -69.68595 30687 ft 595 kts 98°
2026-05-06 20:41 -34.21704 -69.63657 31220 ft 589 kts 89°
2026-05-06 20:41 -34.21904 -69.58745 31771 ft 588 kts 92°
2026-05-06 20:41 -34.22372 -69.53883 32306 ft 589 kts 96°
2026-05-06 20:41 -34.22941 -69.48954 32866 ft 588 kts 96°
2026-05-06 20:42 -34.23541 -69.44144 33387 ft 586 kts 98°
2026-05-06 20:42 -34.24177 -69.39301 33881 ft 585 kts 98°
2026-05-06 20:42 -34.24820 -69.34475 34279 ft 583 kts 97°
2026-05-06 20:42 -34.25473 -69.29612 34680 ft 581 kts 98°
2026-05-06 20:43 -34.26108 -69.24812 35055 ft 577 kts 98°
2026-05-06 20:43 -34.26746 -69.20059 35445 ft 571 kts 97°
2026-05-06 20:43 -34.27386 -69.15306 35841 ft 567 kts 97°
2026-05-06 20:43 -34.27996 -69.10696 36345 ft 559 kts 98°
2026-05-06 20:44 -34.28608 -69.06075 36875 ft 546 kts 99°
2026-05-06 20:44 -34.29797 -68.97033 36910 ft 549 kts 99°
2026-05-06 20:45 -34.30988 -68.87942 36896 ft 548 kts 98°
2026-05-06 20:45 -34.32164 -68.78866 36875 ft 545 kts 99°
2026-05-06 20:46 -34.33325 -68.69851 36858 ft 547 kts 99°
2026-05-06 20:46 -34.34489 -68.60799 36841 ft 545 kts 98°
2026-05-06 20:47 -34.35636 -68.51764 36821 ft 544 kts 99°
2026-05-06 20:47 -34.36782 -68.42728 36802 ft 544 kts 99°
2026-05-06 20:48 -34.37921 -68.33670 36804 ft 545 kts 98°
2026-05-06 20:48 -34.39056 -68.24605 36761 ft 544 kts 98°
2026-05-06 20:49 -34.40180 -68.15561 36743 ft 543 kts 98°
2026-05-06 20:49 -34.41297 -68.06525 36745 ft 544 kts 98°
2026-05-06 20:50 -34.42407 -67.97480 36725 ft 544 kts 98°
2026-05-06 20:50 -34.42961 -67.92963 36561 ft 543 kts 98°
2026-05-06 20:50 -34.43504 -67.88474 36730 ft 539 kts 98°
2026-05-06 20:51 -34.44597 -67.79485 36720 ft 541 kts 97°
2026-05-06 20:51 -34.45646 -67.70473 36654 ft 542 kts 98°
2026-05-06 20:51 -34.46169 -67.65984 36900 ft 539 kts 97°
2026-05-06 20:52 -34.46691 -67.61476 36560 ft 545 kts 97°
2026-05-06 20:52 -34.47210 -67.56977 36736 ft 540 kts 97°
2026-05-06 20:52 -34.47729 -67.52464 36680 ft 541 kts 97°
2026-05-06 20:53 -34.48756 -67.43476 36718 ft 539 kts 97°
2026-05-06 20:53 -34.49276 -67.38933 36845 ft 541 kts 97°
2026-05-06 20:53 -34.49786 -67.34418 36700 ft 543 kts 97°
2026-05-06 20:54 -34.50812 -67.25364 36699 ft 537 kts 96°
2026-05-06 20:54 -34.51816 -67.16395 36711 ft 540 kts 96°
2026-05-06 20:55 -34.52821 -67.07369 36721 ft 542 kts 96°
2026-05-06 20:55 -34.53818 -66.98364 36720 ft 540 kts 96°
2026-05-06 20:56 -34.54805 -66.89376 36707 ft 540 kts 96°
2026-05-06 20:56 -34.55296 -66.84894 36533 ft 538 kts 96°
2026-05-06 20:56 -34.55781 -66.80435 36732 ft 534 kts 95°
2026-05-06 20:57 -34.56753 -66.71468 36717 ft 540 kts 96°
2026-05-06 20:57 -34.57726 -66.62437 36723 ft 538 kts 95°
2026-05-06 20:58 -34.58682 -66.53479 36731 ft 538 kts 96°
2026-05-06 20:58 -34.59633 -66.44512 36735 ft 540 kts 95°
2026-05-06 20:59 -34.60589 -66.35442 36730 ft 540 kts 95°
2026-05-06 20:59 -34.61537 -66.26373 36692 ft 540 kts 95°
2026-05-06 21:00 -34.62472 -66.17359 36703 ft 540 kts 95°
2026-05-06 21:00 -34.63405 -66.08308 36693 ft 542 kts 94°
2026-05-06 21:01 -34.64018 -66.02315 36692 ft 544 kts 94°
2026-05-06 21:01 -34.64939 -65.93287 36697 ft 539 kts 94°
2026-05-06 21:02 -34.65848 -65.84269 36696 ft 541 kts 94°
2026-05-06 21:02 -34.66641 -65.76374 36711 ft 542 kts 94°
2026-05-06 21:03 -34.67545 -65.67290 36708 ft 542 kts 94°
2026-05-06 21:03 -34.68441 -65.58227 36726 ft 543 kts 94°
2026-05-06 21:04 -34.69337 -65.49091 36702 ft 546 kts 94°
2026-05-06 21:04 -34.70224 -65.39988 36702 ft 542 kts 93°
2026-05-06 21:05 -34.71101 -65.30873 36676 ft 541 kts 92°
2026-05-06 21:05 -34.71969 -65.21809 36679 ft 545 kts 92°
2026-05-06 21:06 -34.72832 -65.12701 36673 ft 541 kts 92°
2026-05-06 21:06 -34.73685 -65.03654 36671 ft 544 kts 92°
2026-05-06 21:07 -34.74539 -64.94493 36715 ft 543 kts 92°
2026-05-06 21:07 -34.75380 -64.85424 36640 ft 541 kts 92°
2026-05-06 21:08 -34.76212 -64.76362 36684 ft 543 kts 92°
2026-05-06 21:08 -34.77043 -64.67242 36673 ft 544 kts 92°
2026-05-06 21:09 -34.77879 -64.58085 36671 ft 545 kts 92°
2026-05-06 21:09 -34.78710 -64.48973 36641 ft 542 kts 91°
2026-05-06 21:10 -34.79529 -64.39887 36674 ft 543 kts 92°
2026-05-06 21:10 -34.80344 -64.30781 36668 ft 547 kts 91°
2026-05-06 21:11 -34.81162 -64.21588 36652 ft 545 kts 91°
2026-05-06 21:11 -34.81964 -64.12472 36656 ft 545 kts 91°
2026-05-06 21:12 -34.82637 -64.04746 36666 ft 546 kts 91°
2026-05-06 21:12 -34.83312 -63.96975 36657 ft 546 kts 90°
2026-05-06 21:13 -34.84098 -63.87807 36646 ft 546 kts 90°
2026-05-06 21:13 -34.84880 -63.78596 36659 ft 548 kts 91°
2026-05-06 21:14 -34.85653 -63.69429 36619 ft 546 kts 91°
2026-05-06 21:14 -34.86417 -63.60258 36640 ft 548 kts 91°
2026-05-06 21:15 -34.87180 -63.51065 36652 ft 548 kts 91°
2026-05-06 21:15 -34.87944 -63.41844 36648 ft 547 kts 90°
2026-05-06 21:16 -34.88695 -63.32688 36639 ft 547 kts 90°
2026-05-06 21:16 -34.89449 -63.23417 36635 ft 548 kts 90°
2026-05-06 21:17 -34.90190 -63.14214 36643 ft 548 kts 90°
2026-05-06 21:17 -34.90923 -63.05000 36647 ft 548 kts 89°
2026-05-06 21:18 -34.91647 -62.95816 36632 ft 548 kts 90°
2026-05-06 21:18 -34.92370 -62.86565 36635 ft 548 kts 90°
2026-05-06 21:19 -34.93082 -62.77371 36640 ft 548 kts 90°
2026-05-06 21:19 -34.93787 -62.68173 36649 ft 547 kts 90°
2026-05-06 21:20 -34.94481 -62.58968 36664 ft 547 kts 90°
2026-05-06 21:20 -34.95166 -62.49739 36634 ft 546 kts 90°
2026-05-06 21:21 -34.95842 -62.40540 36675 ft 546 kts 90°
2026-05-06 21:21 -34.96510 -62.31342 36646 ft 546 kts 89°
2026-05-06 21:22 -34.96866 -62.22173 36650 ft 544 kts 86°
2026-05-06 21:22 -34.97164 -62.12995 36647 ft 543 kts 86°
2026-05-06 21:23 -34.97460 -62.03831 36644 ft 544 kts 86°
2026-05-06 21:23 -34.97751 -61.94610 36653 ft 543 kts 87°
2026-05-06 21:24 -34.98033 -61.85435 36647 ft 543 kts 87°
2026-05-06 21:24 -34.98309 -61.76281 36656 ft 543 kts 87°
2026-05-06 21:25 -34.98576 -61.67145 36660 ft 543 kts 86°
2026-05-06 21:25 -34.98839 -61.57908 36646 ft 544 kts 87°
2026-05-06 21:26 -34.99087 -61.48708 36659 ft 546 kts 86°
2026-05-06 21:26 -34.99327 -61.39508 36653 ft 545 kts 87°
2026-05-06 21:27 -34.99560 -61.30226 36632 ft 546 kts 86°
2026-05-06 21:27 -34.98922 -61.21189 36543 ft 533 kts 74°
2026-05-06 21:27 -34.98390 -61.16724 36155 ft 534 kts 76°
2026-05-06 21:28 -34.97932 -61.12262 35233 ft 542 kts 77°
2026-05-06 21:28 -34.97488 -61.07622 34230 ft 550 kts 77°
2026-05-06 21:28 -34.97060 -61.03012 33481 ft 553 kts 77°
2026-05-06 21:28 -34.96640 -60.98379 33068 ft 549 kts 77°
2026-05-06 21:29 -34.96223 -60.93792 32522 ft 548 kts 77°
2026-05-06 21:29 -34.95808 -60.89222 32033 ft 545 kts 77°
2026-05-06 21:29 -34.95395 -60.84684 31617 ft 540 kts 77°
2026-05-06 21:29 -34.94975 -60.80101 31103 ft 538 kts 77°
2026-05-06 21:30 -34.94561 -60.75597 30420 ft 540 kts 77°
2026-05-06 21:30 -34.94149 -60.71126 29949 ft 536 kts 77°
2026-05-06 21:30 -34.93731 -60.66598 29312 ft 536 kts 77°
2026-05-06 21:30 -34.93316 -60.62131 28740 ft 534 kts 77°
2026-05-06 21:31 -34.92897 -60.57659 27976 ft 537 kts 77°
2026-05-06 21:31 -34.92468 -60.53100 27070 ft 542 kts 77°
2026-05-06 21:31 -34.92048 -60.48599 26752 ft 534 kts 78°
2026-05-06 21:31 -34.91626 -60.44132 25795 ft 541 kts 77°
2026-05-06 21:32 -34.91197 -60.39607 25239 ft 538 kts 78°
2026-05-06 21:32 -34.90348 -60.30687 23600 ft 529 kts 77°
2026-05-06 21:32 -34.89928 -60.26277 23025 ft 518 kts 78°
2026-05-06 21:33 -34.89510 -60.21954 22109 ft 515 kts 77°
2026-05-06 21:33 -34.89099 -60.17697 21437 ft 506 kts 77°
2026-05-06 21:33 -34.88686 -60.13424 20611 ft 502 kts 78°
2026-05-06 21:33 -34.88279 -60.09259 19845 ft 496 kts 78°
2026-05-06 21:34 -34.87878 -60.05140 19149 ft 489 kts 78°
2026-05-06 21:34 -34.87481 -60.01088 18484 ft 481 kts 78°
2026-05-06 21:34 -34.87085 -59.97076 17672 ft 477 kts 78°
2026-05-06 21:34 -34.86699 -59.93139 17006 ft 469 kts 78°
2026-05-06 21:35 -34.86309 -59.89232 16197 ft 466 kts 78°
2026-05-06 21:35 -34.85921 -59.85326 15496 ft 459 kts 79°
2026-05-06 21:35 -34.85543 -59.81521 14789 ft 453 kts 79°
2026-05-06 21:35 -34.85165 -59.77751 14050 ft 448 kts 79°
2026-05-06 21:36 -34.84792 -59.74028 13314 ft 443 kts 79°
2026-05-06 21:36 -34.84423 -59.70360 12602 ft 438 kts 79°
2026-05-06 21:36 -34.84058 -59.66729 11988 ft 431 kts 79°
2026-05-06 21:36 -34.83695 -59.63137 11516 ft 420 kts 79°
2026-05-06 21:37 -34.83344 -59.59672 11037 ft 411 kts 78°
2026-05-06 21:37 -34.82997 -59.56266 10554 ft 403 kts 79°
2026-05-06 21:37 -34.82655 -59.52906 10282 ft 389 kts 78°
2026-05-06 21:37 -34.82334 -59.49750 10152 ft 374 kts 78°
2026-05-06 21:38 -34.82015 -59.46648 10026 ft 359 kts 78°
2026-05-06 21:38 -34.81724 -59.43809 9898 ft 347 kts 77°
2026-05-06 21:38 -34.81426 -59.40926 9770 ft 336 kts 77°
2026-05-06 21:38 -34.81143 -59.38181 9648 ft 325 kts 77°
2026-05-06 21:39 -34.80862 -59.35473 9557 ft 315 kts 77°
2026-05-06 21:39 -34.80587 -59.32848 9211 ft 314 kts 76°
2026-05-06 21:39 -34.80313 -59.30219 8979 ft 309 kts 76°
2026-05-06 21:39 -34.80046 -59.27654 8651 ft 308 kts 75°
2026-05-06 21:40 -34.79774 -59.25077 8314 ft 307 kts 75°
2026-05-06 21:40 -34.79509 -59.22529 8042 ft 305 kts 75°
2026-05-06 21:40 -34.79240 -59.19976 7706 ft 304 kts 75°
2026-05-06 21:40 -34.78972 -59.17415 7458 ft 300 kts 75°
2026-05-06 21:41 -34.78708 -59.14910 7105 ft 300 kts 75°
2026-05-06 21:41 -34.78444 -59.12414 6843 ft 297 kts 74°
2026-05-06 21:41 -34.78184 -59.09953 6554 ft 295 kts 74°
2026-05-06 21:41 -34.77922 -59.07486 6211 ft 295 kts 74°
2026-05-06 21:42 -34.77663 -59.05043 5990 ft 290 kts 74°
2026-05-06 21:42 -34.77400 -59.02580 5642 ft 291 kts 74°
2026-05-06 21:42 -34.77143 -59.00159 5436 ft 285 kts 74°
2026-05-06 21:42 -34.76898 -58.97828 5406 ft 272 kts 74°
2026-05-06 21:43 -34.76661 -58.95600 5389 ft 261 kts 73°
2026-05-06 21:43 -34.76432 -58.93459 5265 ft 254 kts 73°
2026-05-06 21:43 -34.76200 -58.91333 5042 ft 253 kts 73°
2026-05-06 21:43 -34.76128 -58.89193 4851 ft 257 kts 85°
2026-05-06 21:44 -34.76233 -58.87015 4605 ft 257 kts 85°
2026-05-06 21:44 -34.76486 -58.84857 4395 ft 262 kts 96°
2026-05-06 21:44 -34.76909 -58.82714 4206 ft 259 kts 96°
2026-05-06 21:44 -34.77307 -58.80602 4029 ft 257 kts 95°
2026-05-06 21:45 -34.77700 -58.78482 3756 ft 258 kts 95°
2026-05-06 21:45 -34.78090 -58.76382 3460 ft 251 kts 95°
2026-05-06 21:45 -34.78464 -58.74353 3127 ft 237 kts 95°
2026-05-06 21:45 -34.78810 -58.72488 2865 ft 217 kts 95°
2026-05-06 21:46 -34.79126 -58.70773 2599 ft 198 kts 94°
2026-05-06 21:46 -34.79413 -58.69199 2331 ft 180 kts 93°
2026-05-06 21:46 -34.79673 -58.67771 2065 ft 165 kts 92°
2026-05-06 21:46 -34.79910 -58.66460 1827 ft 154 kts 92°
2026-05-06 21:47 -34.80133 -58.65202 1640 ft 152 kts 91°
2026-05-06 21:47 -34.80355 -58.63940 1470 ft 154 kts 93°
2026-05-06 21:47 -34.80583 -58.62663 1263 ft 154 kts 94°
2026-05-06 21:47 -34.80810 -58.61406 1059 ft 151 kts 95°
2026-05-06 21:48 -34.81034 -58.60167 868 ft 150 kts 96°
2026-05-06 21:48 -34.81259 -58.58917 674 ft 152 kts 98°
2026-05-06 21:48 -34.81486 -58.57666 475 ft 151 kts 99°
2026-05-06 21:48 -34.81703 -58.56431 279 ft 147 kts 100°
2026-05-06 21:49 -34.81928 -58.55213 103 ft 147 kts 101°
2026-05-06 21:49 -34.82138 -58.54054 73 ft 121 kts 102°
2026-05-06 21:49 -34.82254 -58.53391 73 ft 55 kts 103°
2026-05-06 21:49 -34.82330 -58.52979 73 ft 26 kts 102°
2026-05-06 21:50 -34.82286 -58.52884 73 ft 13 kts 356°
2026-05-06 21:50 -34.82168 -58.52927 73 ft 21 kts 342°
2026-05-06 21:50 -34.82002 -58.52986 73 ft 28 kts 344°
2026-05-06 21:50 -34.81806 -58.53054 73 ft 29 kts 345°
2026-05-06 21:51 -34.81614 -58.53120 73 ft 27 kts 339°
2026-05-06 21:51 -34.81504 -58.53265 73 ft 22 kts 300°
2026-05-06 21:51 -34.81432 -58.53422 73 ft 20 kts 297°
2026-05-06 21:51 -34.81391 -58.53516 73 ft 8 kts 297°
2026-05-06 21:52 -34.81382 -58.53582 73 ft 7 kts 243°
2026-05-06 21:52 -34.81410 -58.53618 73 ft 3 kts 249°
2026-05-06 21:52 -34.81404 -58.53650 73 ft 5 kts 312°
2026-05-06 21:52 -34.81364 -58.53693 73 ft 5 kts 311°
2026-05-06 21:53 -34.81358 -58.53702 73 ft 0 kts 310°